#timestamp,LO_Frequency,Hit 
1500368415.4,286046963.4,N
1500368435.3,286046963.6,N
1500368455.1,286046963.0,N
1500368475.9,286046965.8,N
1500368495.7,286046965.8,N
1500368515.5,286046964.8,N
1500368535.4,286046964.8,N
1500368555.2,286046965.9,N
1500368575.0,286046961.8,N
1500368575.9,286046961.8,N
1500368595.8,286046962.0,N
1500368615.6,286046960.2,N
1500368635.5,286046959.9,N
1500368655.3,286046959.8,N
1500368675.1,286046960.0,N
1500368695.9,286046960.6,N
1500368715.7,286046960.6,N
1500368735.5,286046960.3,N
1500368755.4,286046961.0,N
1500368775.2,286046958.6,N
1500368795.1,286046958.5,N
1500368796.0,286046958.5,N
1500368815.8,286046958.4,N
1500368835.6,286046958.3,N
1500368855.5,286046959.0,N
1500368875.3,286046959.5,N
1500368895.2,286046958.9,N
1500368915.9,286046958.4,N
1500368935.7,286046959.1,N
1500368955.6,286046959.6,N
1500368975.4,286046958.7,N
1500368995.2,286046958.8,N
1500369015.1,286046961.2,N
1500369016.0,286046961.2,N
1500369035.8,286046959.0,N
1500369055.7,286046959.3,N
1500369075.5,286046958.4,N
1500369095.3,286046957.1,N
1500369115.2,286046954.9,N
1500369135.9,286046955.0,N
1500369155.7,286046955.7,N
1500369175.6,286046954.5,N
1500369195.4,286046952.5,N
1500369215.3,286046952.4,N
1500369235.1,286046948.9,N
1500369236.0,286046948.9,N
1500369255.8,286046951.5,N
1500369275.7,286046947.1,N
1500369295.5,286046947.9,N
1500369315.3,286046947.6,N
1500369335.2,286046945.3,N
1500369355.0,286046946.6,N
1500369355.9,286046946.6,N
1500369375.8,286046942.5,N
1500369395.6,286046941.2,N
1500369415.4,286046941.1,N
1500369435.3,286046941.9,N
1500369455.1,286046941.6,N
1500369475.8,286046941.7,N
1500369495.7,286046940.1,N
1500369515.5,286046939.2,N
1500369535.4,286046940.9,N
1500369555.2,286046940.9,N
1500369575.0,286046944.7,N
1500369575.9,286046944.7,N
1500369595.8,286046942.5,N
1500369615.6,286046943.9,N
1500369635.4,286046944.3,N
1500369655.3,286046943.4,N
1500369675.1,286046945.0,N
1500369695.9,286046944.8,N
1500369715.7,286046945.0,N
1500369735.5,286046942.7,N
1500369755.4,286046942.8,N
1500369775.2,286046943.8,N
1500369795.0,286046943.9,N
1500369795.9,286046943.9,N
1500369815.8,286046940.8,N
1500369835.6,286046943.5,N
1500369855.5,286046942.8,N
1500369875.3,286046943.3,N
1500369895.1,286046943.0,N
1500369915.9,286046942.3,N
1500369935.7,286046944.4,N
1500369955.5,286046942.7,N
1500369975.4,286046942.4,N
1500369995.2,286046941.5,N
1500370015.1,286046941.5,N
1500370016.0,286046941.5,N
1500370035.8,286046940.0,N
1500370055.6,286046937.4,N
1500370075.5,286046938.6,N
1500370095.3,286046936.5,N
1500370115.1,286046934.1,N
1500370135.9,286046935.2,N
1500370155.7,286046933.8,N
1500370175.6,286046929.9,N
1500370195.4,286046930.3,N
1500370215.2,286046927.8,N
1500370235.1,286046930.3,N
1500370236.0,286046930.3,N
1500370255.8,286046930.2,N
1500370275.6,286046932.3,N
1500370295.5,286046931.0,N
1500370315.3,286046931.9,N
1500370335.2,286046931.5,N
1500370355.9,286046931.7,N
1500370375.7,286046932.2,N
1500370395.6,286046931.7,N
1500370415.4,286046930.7,N
1500370435.2,286046929.0,N
1500370455.1,286046927.8,N
1500370456.0,286046927.8,N
1500370475.8,286046926.1,N
1500370495.7,286046927.7,N
1500370515.5,286046927.9,N
1500370535.3,286046927.0,N
1500370555.2,286046926.4,N
1500370575.0,286046926.8,N
1500370575.9,286046926.8,N
1500370595.8,286046927.3,N
1500370615.6,286046926.8,N
1500370635.4,286046926.3,N
1500370655.3,286046924.7,N
1500370675.1,286046925.3,N
1500370695.9,286046926.0,N
1500370715.7,286046925.7,N
1500370735.5,286046924.3,N
1500370755.4,286046924.0,N
1500370775.2,286046923.5,N
1500370795.0,286046921.8,N
1500370795.9,286046921.8,N
1500370815.8,286046921.6,N
1500370835.6,286046921.6,N
1500370855.5,286046920.5,N
1500370875.3,286046920.9,N
1500370895.1,286046922.1,N
1500370915.9,286046921.2,N
1500370935.7,286046920.7,N
1500370955.5,286046920.6,N
1500370975.4,286046923.2,N
1500370995.2,286046922.2,N
1500371015.1,286046922.0,N
1500371016.0,286046922.0,N
1500371035.8,286046922.4,N
1500371055.6,286046920.1,N
1500371075.5,286046921.2,N
1500371095.3,286046920.0,N
1500371115.2,286046918.6,N
1500371135.9,286046917.2,N
1500371155.7,286046917.8,N
1500371175.6,286046914.0,N
1500371195.4,286046911.7,N
1500371215.2,286046911.2,N
1500371235.1,286046909.0,N
1500371236.0,286046909.0,N
1500371255.8,286046907.1,N
1500371275.7,286046907.6,N
1500371295.5,286046906.5,N
1500371315.3,286046904.1,N
1500371335.2,286046902.8,N
1500371355.0,286046902.3,N
1500371355.9,286046902.3,N
1500371375.7,286046903.4,N
1500371395.6,286046900.9,N
1500371415.4,286046903.5,N
1500371435.3,286046901.0,N
1500371455.1,286046903.4,N
1500371456.0,286046903.4,N
1500371475.8,286046903.4,N
1500371495.7,286046902.6,N
1500371515.5,286046902.6,N
1500371535.3,286046902.3,N
1500371555.2,286046903.0,N
1500371575.0,286046902.9,N
1500371575.9,286046902.9,N
1500371595.8,286046903.1,N
1500371615.6,286046901.1,N
1500371635.4,286046899.5,N
1500371655.3,286046899.6,N
1500371675.1,286046900.0,N
1500371695.9,286046899.7,N
1500371715.7,286046899.9,N
1500371735.5,286046901.1,N
1500371755.4,286046900.5,N
1500371775.2,286046904.4,N
1500371795.0,286046904.3,N
1500371795.9,286046904.3,N
1500371815.8,286046903.9,N
1500371835.6,286046904.3,N
1500371855.5,286046904.7,N
1500371875.3,286046902.5,N
1500371895.1,286046902.8,N
1500371915.9,286046900.9,N
1500371935.7,286046903.0,N
1500371955.5,286046900.5,N
1500371975.4,286046902.5,N
1500371995.2,286046902.2,N
